Weather History for KNJK - November, 2013

Change the Weather History Date:

Sunday, November 3, 2013

  Actual Average Record
Temperature  
Mean Temperature 70 °F -  
Max Temperature 86 °F 79 °F 95 °F (2010)
Min Temperature 53 °F 54 °F 46 °F (2004)
Cooling Degree Days 4    
Growing Degree Days 20 (Base 50)    
Moisture  
Dew Point 30 °F    
Average Humidity 24    
Maximum Humidity 47    
Minimum Humidity 11    
Precipitation  
Precipitation 0.00 in - - ()
Sea Level Pressure  
Sea Level Pressure 29.81 in    
Wind  
Wind Speed 7 mph (WNW)    
Max Wind Speed 13 mph    
Max Gust Speed -    
Visibility 10 miles    
Events      
Averages and records for this station are not official NWS values.
T = Trace of Precipitation, MM = Missing Value Source: NWS Daily Summary

Daily Weather History Graph

Daily Weather History Graph

Search for Another Location

Airport or City:

Trip Planner

Search our weather history database for the weather conditions in past years. The results will help you decide how hot, cold, wet, or windy it might be!

Date:

Astronomy

Nov. 03, 2013 Rise Set
Actual Time 6:02 AM PST 4:49 PM PST
Civil Twilight 5:36 AM PST 5:15 PM PST
Nautical Twilight 5:07 AM PST 5:44 PM PST
Astronomical Twilight 4:38 AM PST 6:13 PM PST
Moon 6:10 AM PST (11/3) 5:09 PM PST (11/3)
Length of Visible Light 11h 38m
Length of Day
10h 47m
New Moon, 0% of the Moon is Illuminated
Nov 3
New Moon
Nov 9
First Quarter
Nov 17
Full
Nov 25
Last Quarter
Dec 2
New

Hourly Weather History & Observations

Time (PST) Temp. Dew Point Humidity Pressure Visibility Wind Dir Wind Speed Gust Speed Precip Events Conditions
12:56 AM 66.0 °F 26.1 °F 22% 29.85 in 10.0 mi WSW 12.7 mph - N/A   Clear
1:56 AM 62.1 °F 26.1 °F 25% 29.83 in 10.0 mi West 6.9 mph - N/A   Clear
1:56 AM 60.1 °F 26.1 °F 27% 29.83 in 10.0 mi NW 6.9 mph - N/A   Clear
2:56 AM 59.0 °F 27.0 °F 29% 29.82 in 10.0 mi NW 3.5 mph - N/A   Clear
3:56 AM 55.0 °F 28.0 °F 35% 29.81 in 10.0 mi Calm Calm - N/A   Clear
4:56 AM 53.1 °F 26.1 °F 35% 29.82 in 10.0 mi NW 3.5 mph - N/A   Clear
5:56 AM 54.0 °F 34.0 °F 47% 29.83 in 8.0 mi South 3.5 mph - N/A   Clear
6:56 AM 55.9 °F 33.1 °F 42% 29.84 in 7.0 mi South 3.5 mph - N/A   Clear
7:56 AM 69.1 °F 28.0 °F 22% 29.86 in 10.0 mi SW 8.1 mph - N/A   Clear
8:56 AM 75.0 °F 30.0 °F 19% 29.86 in 10.0 mi NNW 5.8 mph - N/A   Clear
9:56 AM 77.0 °F 37.0 °F 24% 29.86 in 10.0 mi SE 5.8 mph - N/A   Clear
10:56 AM 79.0 °F 34.0 °F 20% 29.84 in 10.0 mi East 4.6 mph - N/A   Clear
11:56 AM 82.0 °F 30.9 °F 16% 29.81 in 10.0 mi Variable 5.8 mph - N/A   Clear
12:56 PM 84.0 °F 30.0 °F 14% 29.77 in 10.0 mi ENE 6.9 mph - N/A   Clear
1:56 PM 86.0 °F 26.1 °F 11% 29.75 in 10.0 mi Variable 4.6 mph - N/A   Clear
2:56 PM 86.0 °F 28.0 °F 12% 29.74 in 10.0 mi NNE 5.8 mph - N/A   Clear
3:56 PM 84.0 °F 32.0 °F 15% 29.73 in 10.0 mi NE 5.8 mph - N/A   Clear
4:56 PM 80.1 °F 32.0 °F 17% 29.74 in 10.0 mi Variable 4.6 mph - N/A   Clear
5:56 PM 73.9 °F 37.0 °F 26% 29.75 in 10.0 mi SW 12.7 mph - N/A   Clear